This is the latest recevied weather packets stored in our database for station/object KF7IOR. If no packets are shown the sender has not sent any weather packets the latest 10 day(s).
| Time | Temp. | Humidity | Pressure | Rain* | Wind** | Luminosity | Snow |
|---|---|---|---|---|---|---|---|
| 1777811734 | 10.56° C | 91% | 1011.5 hPa | 0 mm | - | 0 W/m² | - |
| 1777810834 | 10.56° C | 91% | 1011.5 hPa | 0 mm | - | 0 W/m² | - |
| 1777809336 | 10.56° C | 91% | 1011.6 hPa | 0 mm | - | 0 W/m² | - |
| 1777808745 | 10.56° C | 90% | 1011.6 hPa | 0 mm | - | 0 W/m² | - |
| 1777806944 | 11.11° C | 90% | 1011.6 hPa | 0 mm | - | 0 W/m² | - |
| 1777806635 | 11.11° C | 90% | 1011.8 hPa | 0 mm | - | 0 W/m² | - |
| 1777806040 | 11.11° C | 90% | 1011.8 hPa | 0 mm | - | 0 W/m² | - |
| 1777805444 | 11.11° C | 90% | 1011.7 hPa | 0 mm | - | 0 W/m² | - |
| 1777803636 | 11.67° C | 90% | 1011.8 hPa | 0 mm | - | 0 W/m² | - |
| 1777802134 | 11.67° C | 89% | 1012 hPa | 0 mm | - | 0 W/m² | - |
| 1777800035 | 12.22° C | 89% | 1012 hPa | 0 mm | - | 0 W/m² | - |
| 1777799747 | 12.22° C | 89% | 1012.1 hPa | 0 mm | - | 0 W/m² | - |
| 1777798847 | 12.78° C | 89% | 1012.1 hPa | 0 mm | - | 0 W/m² | - |
| 1777798239 | 12.22° C | 88% | 1012 hPa | 0 mm | - | 0 W/m² | - |
| 1777797634 | 12.78° C | 88% | 1012.1 hPa | 0 mm | - | 0 W/m² | - |
| 1777797045 | 12.78° C | 88% | 1012 hPa | 0 mm | - | 0 W/m² | - |
| 1777792835 | 13.89° C | 85% | 1012.2 hPa | 0 mm | - | 0 W/m² | - |
| 1777792234 | 13.89° C | 84% | 1012.2 hPa | 0 mm | - | 0 W/m² | - |
| 1777791643 | 14.44° C | 85% | 1012.1 hPa | 0 mm | - | 0 W/m² | - |
| 1777790435 | 14.44° C | 83% | 1012.2 hPa | 0 mm | - | 0 W/m² | - |
| 1777788946 | 15° C | 81% | 1012.3 hPa | 0 mm | - | 0 W/m² | - |
| 1777788635 | 15° C | 81% | 1012.3 hPa | 0 mm | - | 0 W/m² | - |
| 1777788044 | 15.56° C | 79% | 1012.2 hPa | 0 mm | - | 0 W/m² | - |
| 1777787735 | 15.56° C | 79% | 1012 hPa | 0 mm | - | 0 W/m² | - |
| 1777786837 | 16.11° C | 77% | 1011.8 hPa | 0 mm | - | 0 W/m² | - |
* Rain latest hour (hover to see other rain measurements)
** Current wind speed in m/s (hover to see current wind gust speed)